Location: Boiro
(42.6475°N, 8.8834°W)
Time: 18:49:07
(UTC+01:00)

Explorer 11/Cluster Stage 4 - Pass Details

Date: 30 November 2021
Orbit: 467 x 1255 km, 28.8° (Epoch: 23 January)

Event Time Altitude Azimuth Distance (km) Brightness Sun altitude
Exits shadow 06:54:11 13° 231° (SW) 2,940 9.1 -19.8°
Maximum altitude 07:00:06 30° 178° (S) 2,083 8.8 -18.8°
Drops below altitude 10° 07:06:55 10° 122° (ESE) 3,200 10.8 -17.6°
Sets 07:10:10 0° 112° (ESE) 4,119 12.0 -17.0°
